User: anonymous   Login
Location: Unspecified
(41.5000°N, 0.0000°E)
Time: 09:44:12
(UTC+00:00)
Language:

A-11 Canister half - Orbit

View from above orbital plane
View from above orbital plane
View from above satellite
View from above satellite

Ground track
Ground track

The orbit data is extracted from the following two-line orbital elements,

1    53U 60009E   19288.78800760 -.00000125 +00000-0 -38544-3 0  9994
2    53 047.2758 296.5724 0096697 074.9819 286.1648 12.17230134638649
Epoch (UTC): 15 October 2019 18:54:43
Eccentricity: 0.0096697
inclination: 47.2758°
perigee height: 1527 km
apogee height: 1682 km
right ascension of ascending node: 296.5724°
argument of perigee: 74.9819°
revolutions per day: 12.17230134
mean anomaly at epoch: 286.1648°
orbit number at epoch: 63864

The dashed part of the orbit path shows where the satellite is in the earth's shadow,  

DLR